Midpoint, URN, Start Time, Stop Time, Target_name, Target_lid_reference, sub_solar_latitude, sub_solar_longitude, subspacecraft_latitude, subspacecraft_longitude, target_center_distance, spacecraft_altitude, juno:L_Band_geom:minimum_latitude, juno:L_Band_geom:maximum_latitude, juno:L_Band_geom:minimum_longitude, juno:L_Band_geom:maximum_longitude, juno:L_Band_geom:horizontal_pixel_footprint, juno:L_Band_geom:vertical_pixel_footprint, juno:L_Band_geom:incidence_angle, juno:L_Band_geom:emission_angle, juno:L_Band_geom:phase_angle,juno:M_Band_geom:minimum_latitude, juno:M_Band_geom:maximum_latitude, juno:M_Band_geom:minimum_longitude, juno:M_Band_geom:maximum_longitude, juno:M_Band_geom:horizontal_pixel_footprint, juno:M_Band_geom:vertical_pixel_footprint, juno:M_Band_geom:incidence_angle, juno:M_Band_geom:emission_angle, juno:M_Band_geom:phase_angle, File Size
2021-04-15T21:59:51.72Z,urn:nasa:pds:juno_jiram:data_raw:jir_img_edr_2021105t215954_v01,2021-04-15T21:59:51.724Z,2021-04-15T21:59:51.739Z,JUPITER,urn:nasa:pds:context:target:planet.jupiter,-0.078323,151.8619,43.746,281.9835,208644.2433,139482.5795,12.2066,19.518,348.785,359.5301,33475.8191,33475.8191,,,,,,,,,,,,,0.227
2021-04-15T22:00:21.86Z,urn:nasa:pds:juno_jiram:data_raw:jir_img_edr_2021105t220024_v01,2021-04-15T22:00:21.852Z,2021-04-15T22:00:21.867Z,JUPITER,urn:nasa:pds:context:target:planet.jupiter,-0.078321,151.5583,43.9134,281.6216,207818.1356,138670.0573,10.7715,21.1482,343.364,358.255,33280.8138,33280.8138,,,,14.6236,19.3083,353.272,359.4352,33255.4388,33255.4388,,,,0.227
2021-04-15T22:00:51.98Z,urn:nasa:pds:juno_jiram:data_raw:jir_img_edr_2021105t220054_v01,2021-04-15T22:00:51.979Z,2021-04-15T22:00:51.994Z,JUPITER,urn:nasa:pds:context:target:planet.jupiter,-0.078319,151.2547,44.0821,281.259,206991.2961,137856.9036,9.3166,22.2467,339.069,355.8895,33085.6569,33085.6569,,,,12.6716,22.0587,346.47,359.7746,33060.3309,33060.3309,,,,0.227
2021-04-15T22:01:22.11Z,urn:nasa:pds:juno_jiram:data_raw:jir_img_edr_2021105t220124_v01,2021-04-15T22:01:22.108Z,2021-04-15T22:01:22.123Z,JUPITER,urn:nasa:pds:context:target:planet.jupiter,-0.078318,150.9512,44.2521,280.8956,206163.6452,137043.0407,7.6275,23.2399,335.286,354.1958,32890.3298,32890.3298,,,,11.0934,23.3033,341.495,357.9927,32865.055,32865.055,,,,0.227
2021-04-15T22:01:52.24Z,urn:nasa:pds:juno_jiram:data_raw:jir_img_edr_2021105t220154_v01,2021-04-15T22:01:52.235Z,2021-04-15T22:01:52.250Z,JUPITER,urn:nasa:pds:context:target:planet.jupiter,-0.078316,150.6476,44.4235,280.5313,205335.2939,136228.5787,6.4305,23.8115,331.968,351.778,32694.8589,32694.8589,,,,9.8502,24.3253,337.421,355.6617,32669.6376,32669.6376,,,,0.227
2021-04-15T22:02:22.37Z,urn:nasa:pds:juno_jiram:data_raw:jir_img_edr_2021105t220224_v01,2021-04-15T22:02:22.363Z,2021-04-15T22:02:22.378Z,JUPITER,urn:nasa:pds:context:target:planet.jupiter,-0.078314,150.3441,44.5962,280.1662,204506.162,135413.4393,5.1738,24.0624,328.91,349.4838,32499.2254,32499.2254,,,,8.4007,25.1804,333.796,353.7809,32474.0599,32474.0599,,,,0.227
2021-04-15T22:03:51.89Z,urn:nasa:pds:juno_jiram:data_raw:jir_img_edr_2021105t220354_v01,2021-04-15T22:03:51.882Z,2021-04-15T22:03:51.897Z,JUPITER,urn:nasa:pds:context:target:planet.jupiter,-0.078309,149.4421,45.1176,279.0761,202038.1453,132987.6119,20.6397,23.3411,0.037,359.9709,31917.0268,31917.0268,,,,,,,,,,,,,0.227
2021-04-15T22:04:22.30Z,urn:nasa:pds:juno_jiram:data_raw:jir_img_edr_2021105t220424_v01,2021-04-15T22:04:22.023Z,2021-04-15T22:04:22.038Z,JUPITER,urn:nasa:pds:context:target:planet.jupiter,-0.078308,149.1384,45.2959,278.7072,201205.6831,132169.5636,18.615,28.2235,0.018,359.985,31720.6953,31720.6953,,,,,,,,,,,,,0.227
2021-04-15T22:04:52.17Z,urn:nasa:pds:juno_jiram:data_raw:jir_img_edr_2021105t220454_v01,2021-04-15T22:04:52.168Z,2021-04-15T22:04:52.183Z,JUPITER,urn:nasa:pds:context:target:planet.jupiter,-0.078306,148.8347,45.4757,278.3374,200372.3396,131350.7429,16.3249,29.8591,0.012,359.9662,31524.1783,31524.1783,,,,20.5429,28.0724,0.006,359.9891,31499.3253,31499.3253,,,,0.227
2021-04-15T22:05:22.32Z,urn:nasa:pds:juno_jiram:data_raw:jir_img_edr_2021105t220524_v01,2021-04-15T22:05:22.312Z,2021-04-15T22:05:22.327Z,JUPITER,urn:nasa:pds:context:target:planet.jupiter,-0.078304,148.531,45.657,277.9665,199538.3106,130531.3427,14.5344,30.7399,337.025,357.623,31327.5222,31327.5222,,,,18.1853,30.493,0.006,359.9969,31302.7394,31302.7394,,,,0.227
2021-04-15T22:05:52.46Z,urn:nasa:pds:juno_jiram:data_raw:jir_img_edr_2021105t220554_v01,2021-04-15T22:05:52.458Z,2021-04-15T22:05:52.473Z,JUPITER,urn:nasa:pds:context:target:planet.jupiter,-0.078303,148.2272,45.8398,277.5946,198703.4891,129711.2586,12.8684,31.5461,332.483,355.4239,31130.7021,31130.7021,,,,16.3889,31.5787,339.139,359.4854,31105.992,31105.992,,,,0.227
2021-04-15T22:06:22.61Z,urn:nasa:pds:juno_jiram:data_raw:jir_img_edr_2021105t220624_v01,2021-04-15T22:06:22.603Z,2021-04-15T22:06:22.618Z,JUPITER,urn:nasa:pds:context:target:planet.jupiter,-0.078301,147.9235,46.024,277.2218,197867.9603,128890.5753,10.9378,31.961,328.483,352.7746,30933.7381,30933.7381,153.8855,83.1912,97.2866,14.5803,32.4032,334.294,356.6855,30909.1034,30909.1034,,,,0.227
2021-04-15T22:06:52.75Z,urn:nasa:pds:juno_jiram:data_raw:jir_img_edr_2021105t220655_v01,2021-04-15T22:06:52.749Z,2021-04-15T22:06:52.764Z,JUPITER,urn:nasa:pds:context:target:planet.jupiter,-0.078299,147.6197,46.2098,276.8478,197031.6725,128069.2424,9.1424,32.031,324.831,349.6869,30736.6182,30736.6182,155.027,75.5707,97.152,12.477,33.0429,329.996,353.9358,30712.0614,30712.0614,151.461,86.4753,97.3657,0.227
2021-04-15T22:07:22.90Z,urn:nasa:pds:juno_jiram:data_raw:jir_img_edr_2021105t220725_v01,2021-04-15T22:07:22.894Z,2021-04-15T22:07:22.909Z,JUPITER,urn:nasa:pds:context:target:planet.jupiter,-0.078298,147.316,46.3971,276.4728,196194.684,127247.3179,7.7729,31.8837,321.513,347.2268,30539.3563,30539.3563,155.4383,71.1211,97.0158,10.8036,33.2796,326.168,351.1916,30514.8802,30514.8802,153.0067,76.4172,97.2348,0.227
2021-04-15T22:07:53.50Z,urn:nasa:pds:juno_jiram:data_raw:jir_img_edr_2021105t220755_v01,2021-04-15T22:07:53.040Z,2021-04-15T22:07:53.055Z,JUPITER,urn:nasa:pds:context:target:planet.jupiter,-0.078296,147.0123,46.586,276.0966,195356.9431,126424.7519,6.0558,31.564,318.419,344.7185,30341.9405,30341.9405,155.5935,67.8079,96.8751,9.2784,33.2396,322.648,348.3888,30317.5477,30317.5477,153.4993,71.4059,97.099,0.227
2021-04-15T22:09:22.57Z,urn:nasa:pds:juno_jiram:data_raw:jir_img_edr_2021105t220924_v01,2021-04-15T22:09:22.562Z,2021-04-15T22:09:22.577Z,JUPITER,urn:nasa:pds:context:target:planet.jupiter,-0.078291,146.1103,47.1562,274.9728,192864.9391,123978.4673,20.3344,37.0702,0.006,359.9613,29754.8321,29754.8321,,,,24.307,35.822,0.001,359.9891,29730.703,29730.703,,,,0.227
2021-04-15T22:09:52.71Z,urn:nasa:pds:juno_jiram:data_raw:jir_img_edr_2021105t220955_v01,2021-04-15T22:09:52.704Z,2021-04-15T22:09:52.719Z,JUPITER,urn:nasa:pds:context:target:planet.jupiter,-0.078289,145.8066,47.3514,274.592,192024.4698,123153.6145,18.5205,37.8309,334.233,358.3651,29556.8675,29556.8675,,,,22.3356,37.6225,0.003,359.9985,29532.8327,29532.8327,,,,0.227
2021-04-15T22:10:22.85Z,urn:nasa:pds:juno_jiram:data_raw:jir_img_edr_2021105t221025_v01,2021-04-15T22:10:22.849Z,2021-04-15T22:10:22.864Z,JUPITER,urn:nasa:pds:context:target:planet.jupiter,-0.078288,145.5028,47.5484,274.21,191183.2123,122328.0882,16.7188,38.5477,329.634,355.3183,29358.7412,29358.7412,144.9291,77.0541,97.4749,20.4913,38.567,336.673,359.8311,29334.8037,29334.8037,,,,0.227
2021-04-15T22:10:53.00Z,urn:nasa:pds:juno_jiram:data_raw:jir_img_edr_2021105t221055_v01,2021-04-15T22:10:52.996Z,2021-04-15T22:10:53.011Z,JUPITER,urn:nasa:pds:context:target:planet.jupiter,-0.078286,145.1991,47.747,273.8266,190341.1981,121501.9199,14.8741,38.9477,325.427,352.9418,29160.4608,29160.4608,145.4689,70.8063,97.3436,18.5209,39.2969,331.634,356.745,29136.6235,29136.6235,143.1594,79.955,97.5503,0.227
2021-04-15T22:11:23.15Z,urn:nasa:pds:juno_jiram:data_raw:jir_img_edr_2021105t221125_v01,2021-04-15T22:11:23.142Z,2021-04-15T22:11:23.157Z,JUPITER,urn:nasa:pds:context:target:planet.jupiter,-0.078284,144.8954,47.9473,273.4419,189498.5164,120675.1978,13.2152,39.0528,321.638,349.9034,28962.0475,28962.0475,145.6843,66.3759,97.21,16.4587,39.9023,327.196,354.0335,28938.3133,28938.3133,143.8771,72.4374,97.4221,0.227
2021-04-15T22:11:53.29Z,urn:nasa:pds:juno_jiram:data_raw:jir_img_edr_2021105t221155_v01,2021-04-15T22:11:53.289Z,2021-04-15T22:11:53.304Z,JUPITER,urn:nasa:pds:context:target:planet.jupiter,-0.078283,144.5916,48.1493,273.0558,188655.1158,119847.872,11.5755,38.9457,318.126,347.338,28763.4893,28763.4893,145.7495,62.8095,97.0719,14.8649,40.1553,323.146,350.9002,28739.8613,28739.8613,144.1743,67.4412,97.289,0.227
2021-04-15T22:12:23.44Z,urn:nasa:pds:juno_jiram:data_raw:jir_img_edr_2021105t221225_v01,2021-04-15T22:12:23.435Z,2021-04-15T22:12:23.450Z,JUPITER,urn:nasa:pds:context:target:planet.jupiter,-0.078281,144.2879,48.3531,272.6683,187811.0575,119020.0033,12.8119,38.6999,314.904,344.5701,28564.8008,28564.8008,145.6999,59.8597,96.9321,13.5884,40.1682,319.477,348.688,28541.282,28541.282,144.2718,63.5676,97.1541,0.227
2021-04-15T22:12:53.59Z,urn:nasa:pds:juno_jiram:data_raw:jir_img_edr_2021105t221255_v01,2021-04-15T22:12:53.582Z,2021-04-15T22:12:53.597Z,JUPITER,urn:nasa:pds:context:target:planet.jupiter,-0.078279,143.9841,48.5587,272.2794,186966.2919,118191.5433,19.1504,38.3333,311.877,335.3781,28365.9704,28365.9704,145.5824,57.3352,96.7878,13.9715,39.9998,316.063,346.2696,28342.5638,28342.5638,144.2621,60.334,97.0147,0.227
2021-04-15T22:13:23.73Z,urn:nasa:pds:juno_jiram:data_raw:jir_img_edr_2021105t221326_v01,2021-04-15T22:13:23.728Z,2021-04-15T22:13:23.743Z,JUPITER,urn:nasa:pds:context:target:planet.jupiter,-0.078278,143.6804,48.7661,271.889,186120.8793,117362.5519,20.2457,37.8937,309.065,330.1392,28167.0124,28167.0124,145.3968,55.1885,96.6423,20.4103,39.7138,312.92,336.847,28143.7212,28143.7212,144.1607,57.6041,96.8738,0.227
2021-04-15T22:15:23.31Z,urn:nasa:pds:juno_jiram:data_raw:jir_img_edr_2021105t221525_v01,2021-04-15T22:15:23.305Z,2021-04-15T22:15:23.320Z,JUPITER,urn:nasa:pds:context:target:planet.jupiter,-0.078271,142.4755,49.6068,270.3251,182760.9489,114068.9077,20.9104,45.5448,326.874,355.4815,27376.5379,27376.5379,136.8075,68.7947,97.5102,24.3886,45.548,0.01,359.984,27353.7355,27353.7355,134.8523,78.7727,97.7103,0.227
2021-04-15T22:15:53.47Z,urn:nasa:pds:juno_jiram:data_raw:jir_img_edr_2021105t221555_v01,2021-04-15T22:15:53.461Z,2021-04-15T22:15:53.476Z,JUPITER,urn:nasa:pds:context:target:planet.jupiter,-0.078269,142.1717,49.8236,269.9266,181911.9995,113236.9667,20.0856,45.9496,322.107,352.6073,27176.872,27176.872,137.0448,63.7479,97.3675,22.1065,46.2172,328.785,357.0036,27154.201,27154.201,135.5465,70.5462,97.5735,0.227
2021-04-15T22:16:23.61Z,urn:nasa:pds:juno_jiram:data_raw:jir_img_edr_2021105t221625_v01,2021-04-15T22:16:23.608Z,2021-04-15T22:16:23.623Z,JUPITER,urn:nasa:pds:context:target:planet.jupiter,-0.078268,141.868,50.0422,269.5265,181062.6681,112404.7564,24.9492,46.0928,318.108,344.98,26977.1415,26977.1415,137.0629,59.923,97.2334,20.9687,46.809,324.12,353.6711,26954.6052,26954.6052,135.7623,65.3799,97.4446,0.227
2021-04-15T22:16:53.76Z,urn:nasa:pds:juno_jiram:data_raw:jir_img_edr_2021105t221656_v01,2021-04-15T22:16:53.756Z,2021-04-15T22:16:53.771Z,JUPITER,urn:nasa:pds:context:target:planet.jupiter,-0.078266,141.5642,50.2628,269.1246,180212.6809,111572.0091,29.1805,46.0387,314.393,336.9046,26777.2822,26777.2822,137.0031,56.6107,97.0945,21.4079,47.097,319.837,351.2713,26754.8838,26754.8838,135.8311,61.1869,97.3108,0.227
2021-04-15T22:17:23.91Z,urn:nasa:pds:juno_jiram:data_raw:jir_img_edr_2021105t221726_v01,2021-04-15T22:17:23.903Z,2021-04-15T22:17:23.918Z,JUPITER,urn:nasa:pds:context:target:planet.jupiter,-0.078265,141.2604,50.4854,268.7208,179362.103,110738.7887,30.9882,45.8546,310.985,331.3596,26577.3093,26577.3093,136.8719,53.7318,96.954,29.5967,47.1609,315.948,339.3182,26555.0523,26555.0523,135.7927,57.6562,97.1753,0.227
2021-04-15T22:17:54.50Z,urn:nasa:pds:juno_jiram:data_raw:jir_img_edr_2021105t221756_v01,2021-04-15T22:17:54.049Z,2021-04-15T22:17:54.064Z,JUPITER,urn:nasa:pds:context:target:planet.jupiter,-0.078263,140.9567,50.7101,268.3151,178510.9135,109905.0751,31.558,45.5683,307.809,326.7265,26377.218,26377.218,136.691,51.1771,96.8107,31.9235,47.0625,312.355,333.2426,26355.1058,26355.1058,135.6841,54.5687,97.0367,0.227
2021-04-15T22:18:24.20Z,urn:nasa:pds:juno_jiram:data_raw:jir_img_edr_2021105t221826_v01,2021-04-15T22:18:24.198Z,2021-04-15T22:18:24.213Z,JUPITER,urn:nasa:pds:context:target:planet.jupiter,-0.078261,140.6529,50.9368,267.9074,177659.0647,109070.8218,31.8563,45.1813,304.785,322.5785,26176.9972,26176.9972,136.4818,48.8667,96.6614,32.8643,46.8242,308.958,328.2241,26155.0332,26155.0332,135.5343,51.7861,96.8923,0.227
2021-04-15T22:18:54.35Z,urn:nasa:pds:juno_jiram:data_raw:jir_img_edr_2021105t221856_v01,2021-04-15T22:18:54.345Z,2021-04-15T22:18:54.360Z,JUPITER,urn:nasa:pds:context:target:planet.jupiter,-0.07826,140.3492,51.1656,267.4977,176806.6786,108236.1484,31.9823,44.7525,301.991,318.8929,25976.6756,25976.6756,136.2292,46.8421,96.5115,33.2688,46.5103,305.842,323.9284,25954.8633,25954.8633,135.3307,49.3415,96.747,0.227
2021-04-15T22:19:24.49Z,urn:nasa:pds:juno_jiram:data_raw:jir_img_edr_2021105t221926_v01,2021-04-15T22:19:24.493Z,2021-04-15T22:19:24.508Z,JUPITER,urn:nasa:pds:context:target:planet.jupiter,-0.078258,140.0454,51.3965,267.0858,175953.6798,107400.9814,31.9621,44.2655,299.335,315.4866,25776.2355,25776.2355,135.9536,45.0378,96.3571,33.4647,46.1171,302.9,320.0418,25754.5784,25754.5784,135.0972,47.1389,96.5971,0.227
2021-04-15T22:20:54.20Z,urn:nasa:pds:juno_jiram:data_raw:jir_img_edr_2021105t222056_v01,2021-04-15T22:20:54.015Z,2021-04-15T22:20:54.030Z,JUPITER,urn:nasa:pds:context:target:planet.jupiter,-0.078253,139.1434,52.0949,265.8499,173417.4195,104918.3677,36.7359,52.2034,316.205,337.9008,25180.4083,25180.4083,130.0812,56.5839,97.2695,30.8734,52.6744,322.933,350.793,25159.2328,25159.2328,129.0051,62.086,97.4794,0.227
2021-04-15T22:21:24.17Z,urn:nasa:pds:juno_jiram:data_raw:jir_img_edr_2021105t222126_v01,2021-04-15T22:21:24.169Z,2021-04-15T22:21:24.184Z,JUPITER,urn:nasa:pds:context:target:planet.jupiter,-0.078251,138.8396,52.3345,265.429,172562.0282,104081.2803,38.7252,52.218,311.97,331.7554,24979.5073,24979.5073,130.0038,53.1201,97.1229,36.899,53.0771,318.032,340.448,24958.5012,24958.5012,129.0322,57.8778,97.3383,0.227
2021-04-15T22:21:54.32Z,urn:nasa:pds:juno_jiram:data_raw:jir_img_edr_2021105t222156_v01,2021-04-15T22:21:54.317Z,2021-04-15T22:21:54.332Z,JUPITER,urn:nasa:pds:context:target:planet.jupiter,-0.07825,138.5358,52.5764,265.0057,171706.2733,103243.9431,39.6598,52.1185,308.268,326.8029,24778.5463,24778.5463,129.8379,50.1728,96.9814,39.2815,53.2436,313.788,334.0986,24757.7132,24757.7132,128.9409,54.3931,97.2017,0.227
2021-04-15T22:22:24.47Z,urn:nasa:pds:juno_jiram:data_raw:jir_img_edr_2021105t222226_v01,2021-04-15T22:22:24.467Z,2021-04-15T22:22:24.482Z,JUPITER,urn:nasa:pds:context:target:planet.jupiter,-0.078248,138.232,52.8205,264.5799,170849.9405,102406.1462,40.063,51.8927,304.767,322.3211,24577.4751,24577.4751,129.6417,47.4533,96.8341,40.7092,53.2222,309.801,328.7168,24556.8185,24556.8185,128.8048,51.2194,97.0593,0.227
2021-04-15T22:22:54.62Z,urn:nasa:pds:juno_jiram:data_raw:jir_img_edr_2021105t222256_v01,2021-04-15T22:22:54.616Z,2021-04-15T22:22:54.631Z,JUPITER,urn:nasa:pds:context:target:planet.jupiter,-0.078246,137.9283,53.067,264.1514,169993.1262,101567.9837,40.2889,51.5914,301.53,318.2891,24376.3161,24376.3161,129.4071,44.997,96.6847,41.2226,53.0756,306.141,324.0255,24355.8397,24355.8397,128.6191,48.3705,96.9148,0.227
2021-04-15T22:23:24.77Z,urn:nasa:pds:juno_jiram:data_raw:jir_img_edr_2021105t222327_v01,2021-04-15T22:23:24.766Z,2021-04-15T22:23:24.781Z,JUPITER,urn:nasa:pds:context:target:planet.jupiter,-0.078245,137.6245,53.3159,263.7201,169135.7867,100729.4124,40.3718,51.2168,298.475,314.5509,24175.059,24175.059,129.1486,42.7383,96.5308,41.5262,52.8223,302.708,319.7551,24154.7665,24154.7665,128.402,45.7501,96.7656,0.227
2021-04-15T22:23:54.92Z,urn:nasa:pds:juno_jiram:data_raw:jir_img_edr_2021105t222357_v01,2021-04-15T22:23:54.915Z,2021-04-15T22:23:54.930Z,JUPITER,urn:nasa:pds:context:target:planet.jupiter,-0.078243,137.3207,53.5671,263.2861,168277.9911,99890.4998,40.359,50.8051,295.627,311.1123,23973.72,23973.72,128.8602,40.6969,96.3759,41.6851,52.5049,299.529,315.8772,23953.6151,23953.6151,128.1488,43.3712,96.6153,0.227
2021-04-15T22:24:25.70Z,urn:nasa:pds:juno_jiram:data_raw:jir_img_edr_2021105t222427_v01,2021-04-15T22:24:25.066Z,2021-04-15T22:24:25.081Z,JUPITER,urn:nasa:pds:context:target:planet.jupiter,-0.078241,137.0169,53.8208,262.8492,167419.6679,99051.1755,40.2444,50.3335,292.898,307.8474,23772.2821,23772.2821,128.5592,38.8188,96.2149,41.7124,52.11,296.498,312.228,23752.3685,23752.3685,127.8787,41.1581,96.4589,0.227
2021-04-15T22:24:55.22Z,urn:nasa:pds:juno_jiram:data_raw:jir_img_edr_2021105t222457_v01,2021-04-15T22:24:55.216Z,2021-04-15T22:24:55.231Z,JUPITER,urn:nasa:pds:context:target:planet.jupiter,-0.07824,136.7131,54.077,262.4092,166560.9161,98211.5356,40.0723,49.8447,290.339,304.8103,23570.7685,23570.7685,128.2351,37.1449,96.0526,41.6563,51.6824,293.674,308.8599,23551.0499,23551.0499,127.5815,39.1559,96.301,0.227
2021-04-15T22:26:24.74Z,urn:nasa:pds:juno_jiram:data_raw:jir_img_edr_2021105t222627_v01,2021-04-15T22:26:24.743Z,2021-04-15T22:26:24.758Z,JUPITER,urn:nasa:pds:context:target:planet.jupiter,-0.078235,135.8111,54.8523,261.0838,164008.4026,95716.4338,47.2802,58.1637,305.922,323.6106,22971.9441,22971.9441,123.4327,47.7139,96.9925,47.0919,59.0909,312.2,331.0135,22952.8263,22952.8263,122.664,52.1647,97.2124,0.227
2021-04-15T22:26:54.98Z,urn:nasa:pds:juno_jiram:data_raw:jir_img_edr_2021105t222657_v01,2021-04-15T22:26:54.979Z,2021-04-15T22:26:54.994Z,JUPITER,urn:nasa:pds:context:target:planet.jupiter,-0.078233,135.5064,55.1193,260.6295,163145.5306,94873.1712,47.1688,57.2832,299.326,315.8692,22769.5611,22769.5611,123.5789,42.9268,96.7185,47.978,58.602,304.551,321.9942,22750.6536,22750.6536,122.8893,46.6881,96.9475,0.227
2021-04-15T22:27:25.22Z,urn:nasa:pds:juno_jiram:data_raw:jir_img_edr_2021105t222727_v01,2021-04-15T22:27:25.213Z,2021-04-15T22:27:25.228Z,JUPITER,urn:nasa:pds:context:target:planet.jupiter,-0.078231,135.2018,55.3889,260.1715,162282.3344,94029.6919,46.6439,56.1438,293.718,309.3013,22567.1261,22567.1261,123.639,38.8637,96.4372,47.8021,57.7014,298.115,314.497,22548.4326,22548.4326,123.0052,42.0411,96.6748,0.227
2021-04-15T22:27:55.45Z,urn:nasa:pds:juno_jiram:data_raw:jir_img_edr_2021105t222757_v01,2021-04-15T22:27:55.447Z,2021-04-15T22:27:55.462Z,JUPITER,urn:nasa:pds:context:target:planet.jupiter,-0.07823,134.8972,55.6612,259.7097,161418.7741,93185.9557,45.8371,54.8341,288.84,303.5749,22364.6294,22364.6294,123.6405,35.4252,96.146,47.2372,56.5449,292.578,308.0381,22346.1536,22346.1536,123.0483,38.0409,96.3919,0.227
2021-04-15T22:28:25.69Z,urn:nasa:pds:juno_jiram:data_raw:jir_img_edr_2021105t222828_v01,2021-04-15T22:28:25.682Z,2021-04-15T22:28:25.697Z,JUPITER,urn:nasa:pds:context:target:planet.jupiter,-0.078228,134.5925,55.9363,259.244,160554.839,92341.9511,44.8181,53.4024,284.525,298.4988,22162.0683,22162.0683,123.5995,32.6091,95.8439,46.3989,55.2172,287.735,302.3659,22143.814,22143.814,123.0394,34.636,96.0976,0.227
2021-04-15T22:29:54.43Z,urn:nasa:pds:juno_jiram:data_raw:jir_img_edr_2021105t222956_v01,2021-04-15T22:29:54.424Z,2021-04-15T22:29:54.439Z,JUPITER,urn:nasa:pds:context:target:planet.jupiter,-0.078223,133.6984,56.7595,257.8529,158017.3069,89863.5099,37.4228,62.2198,0,359.9997,21567.2424,21567.2424,114.9641,72.7171,97.8612,40.3672,58.7877,0.001,359.9999,21549.6592,21549.6592,,,,0.227
2021-04-15T22:30:24.66Z,urn:nasa:pds:juno_jiram:data_raw:jir_img_edr_2021105t223026_v01,2021-04-15T22:30:24.658Z,2021-04-15T22:30:24.673Z,JUPITER,urn:nasa:pds:context:target:planet.jupiter,-0.078221,133.3937,57.0456,257.3701,157152.227,89018.7575,47.4597,64.1556,330.428,350.4241,21364.5018,21364.5018,115.7564,62.4798,97.6303,38.0834,63.0766,0.001,359.9983,21347.1545,21347.1545,114.6165,70.6521,97.8255,0.227
2021-04-15T22:30:54.90Z,urn:nasa:pds:juno_jiram:data_raw:jir_img_edr_2021105t223057_v01,2021-04-15T22:30:54.893Z,2021-04-15T22:30:54.908Z,JUPITER,urn:nasa:pds:context:target:planet.jupiter,-0.07822,133.0891,57.3346,256.8826,156286.8437,88173.7986,52.886,64.8572,318.64,336.8466,21161.7117,21161.7117,116.1671,55.0291,97.3848,49.4737,64.8043,328.69,347.7707,21144.6037,21144.6037,115.317,61.0566,97.5901,0.227
2021-04-15T22:31:25.13Z,urn:nasa:pds:juno_jiram:data_raw:jir_img_edr_2021105t223127_v01,2021-04-15T22:31:25.129Z,2021-04-15T22:31:25.144Z,JUPITER,urn:nasa:pds:context:target:planet.jupiter,-0.078218,132.7844,57.6265,256.39,155421.2356,87328.7081,55.0927,65.1842,308.607,326.2536,20958.8899,20958.8899,116.3899,48.8855,97.1279,53.9944,65.4535,317.031,334.9795,20942.025,20942.025,115.6805,53.8898,97.343,0.227
2021-04-15T22:31:55.37Z,urn:nasa:pds:juno_jiram:data_raw:jir_img_edr_2021105t223157_v01,2021-04-15T22:31:55.365Z,2021-04-15T22:31:55.380Z,JUPITER,urn:nasa:pds:context:target:planet.jupiter,-0.078216,132.4798,57.9214,255.8923,154555.4268,86483.5072,55.5786,64.8124,300.141,317.2584,20756.0417,20756.0417,116.4963,43.5572,96.8598,55.9277,65.6994,307.112,324.6486,20739.4232,20739.4232,115.8742,47.9035,97.0841,0.227
2021-04-15T22:32:25.61Z,urn:nasa:pds:juno_jiram:data_raw:jir_img_edr_2021105t223227_v01,2021-04-15T22:32:25.601Z,2021-04-15T22:32:25.616Z,JUPITER,urn:nasa:pds:context:target:planet.jupiter,-0.078215,132.1751,58.2193,255.3891,153689.4404,85638.2163,55.371,64.0041,292.995,309.4788,20553.1719,20553.1719,116.5206,38.8337,96.5809,56.2209,65.2695,298.747,315.8089,20536.8033,20536.8033,115.9591,42.6782,96.8141,0.227
2021-04-15T22:32:55.84Z,urn:nasa:pds:juno_jiram:data_raw:jir_img_edr_2021105t223258_v01,2021-04-15T22:32:55.837Z,2021-04-15T22:32:55.852Z,JUPITER,urn:nasa:pds:context:target:planet.jupiter,-0.078213,131.8705,58.5202,254.8803,152823.3023,84792.8581,54.8374,62.9342,286.914,302.6907,20350.2859,20350.2859,116.4831,34.6152,96.2924,55.9656,64.4297,291.682,308.1325,20334.1707,20334.1707,115.9662,38.0222,96.5341,0.227
2021-04-15T22:34:25.50Z,urn:nasa:pds:juno_jiram:data_raw:jir_img_edr_2021105t223427_v01,2021-04-15T22:34:25.046Z,2021-04-15T22:34:25.061Z,JUPITER,urn:nasa:pds:context:target:planet.jupiter,-0.078208,130.9716,59.4263,253.3435,150267.1924,82298.5165,53.499,68.5059,335.03,350.8797,19751.644,19751.644,110.8308,62.0183,97.6279,41.0404,66.7498,0,359.9998,19736.2953,19736.2953,109.7833,69.9695,97.8231,0.227
2021-04-15T22:34:55.36Z,urn:nasa:pds:juno_jiram:data_raw:jir_img_edr_2021105t223457_v01,2021-04-15T22:34:55.364Z,2021-04-15T22:34:55.379Z,JUPITER,urn:nasa:pds:context:target:planet.jupiter,-0.078206,130.6662,59.7406,252.8081,149398.3634,81450.8235,59.4102,69.5847,315.903,332.7022,19548.1976,19548.1976,111.5287,51.9211,97.2714,57.2241,69.5219,327.025,342.8296,19533.1159,19533.1159,110.8128,57.4503,97.4811,0.227
2021-04-15T22:35:25.69Z,urn:nasa:pds:juno_jiram:data_raw:jir_img_edr_2021105t223528_v01,2021-04-15T22:35:25.684Z,2021-04-15T22:35:25.699Z,JUPITER,urn:nasa:pds:context:target:planet.jupiter,-0.078205,130.3607,60.0581,252.2657,148529.4623,80603.1258,60.9545,69.5751,300.515,317.9933,19344.7502,19344.7502,111.9424,43.8004,96.8885,60.8563,70.1319,309.074,326.262,19329.9384,19329.9384,111.3653,48.3232,97.1117,0.227